C/2013 V2 ( Borisov )

Japanese version
Home page
Updated on May 29, 2016

---------------------------------------------------------------------

* Profile

Discovery Date November 6, 2013
Magnitude 16.9 mag
Discoverer G. Borisov (Crimean Laboratory, Sternberg Astronomical Institute)

* Pictures

* Orbital Elements

Epoch 2014 Oct. 30.0 TT = JDT 2456960.5
T 2014 Oct. 14.36342 TT                                 MPCW
q   3.5079183            (2000.0)            P               Q
z  -0.0012369      Peri.   94.47201     -0.64068019     -0.61548856
 +/-0.0000003      Node    48.42730     +0.18243672     -0.70274590
e   1.0043390      Incl.   37.84839     +0.74581883     -0.35682213
From 1686 observations 2012 Nov. 17-2016 Feb. 11, mean residual 0".4.

* Finding Charts

* Magnitudes Graph

        m1 = 7.5 + 5 log d + 10.0 log r

---------------------------------------------------------------------

The orbital elements are published on M.P.E.C. 2016-D32.
The charts are made with StellaNavigator Ver.8 (AstroArts).
The magnitudes graphs are made with Comet for Windows.

---------------------------------------------------------------------

Copyright(C) Seiichi Yoshida (comet@aerith.net). All rights reserved.